Hourly Data Report for July 07, 2004

SHERBROOKE A
QUEBEC

45°26'00.000" N
71°41'00.000" W
241.40 m
7028124
71610
YSC

Download Data

Hourly Data (July 2004)
Hourly Data Report for July 7, 2004
TIME
LST
Temp Definition
°C
Dew Point Definition
°C
Rel Hum Definition
%
Precip. Amount Definition
mm

Wind Dir Definition
10's deg

Wind Spd Definition
km/h
Visibility Definition
km
Stn Press Definition
kPa
Hmdx Definition


Wind Chill Definition


Weather Definition


00:00 8.3 7.5 95   12 4 3.9 98.42      
01:00 7.7 7.0 95   7 4 1.1 98.44      
02:00 7.7 6.6 93   12 4 5.6 98.46      
03:00 6.3 5.5 95     0 1.0 98.50      
04:00 5.4 4.6 95   10 6 0.3 98.51      
05:00 8.0 7.5 97   7 6 8.0 98.50      
06:00 10.9 10.2 95   12 6 15.0 98.50      
07:00 14.1 11.6 85   9 7 24.1 98.48     Mainly Clear
08:00 18.0 12.8 72     0 24.1 98.48     Mainly Clear
09:00 20.4 12.4 60     0 24.1 98.49     Mainly Clear
10:00 22.1 11.2 50   7 6 24.1 98.46     Mainly Clear
11:00 22.5 9.7 44   31 4 24.1 98.42     Mainly Clear
12:00 23.4 10.2 43   32 4 24.1 98.35 25   Mainly Clear
13:00 24.6 12.0 45   11 7 24.1 98.28 27   Mainly Clear
14:00 25.0 11.1 42     0 24.1 98.23 27   Mostly Cloudy
15:00 24.6 11.2 43     0 24.1 98.13 26   Mostly Cloudy
16:00 25.8 12.2 43   32 7 24.1 98.12 28   Mostly Cloudy
17:00 26.2 12.0 41     0 15.0 98.08 28    
18:00 23.2 13.5 54   34 4 15.0 98.12 26    
19:00 19.8 15.2 75     0 15.0 98.13      
20:00 17.0 13.3 79   7 4 15.0 98.15      
21:00 17.6 14.3 81   10 4 15.0 98.14      
22:00 17.6 13.5 77   9 6 15.0 98.13      
23:00 18.4 13.8 75   10 7 15.0 98.10      

Notes on Data Quality.

Legend

  • E = Estimated
  • M = Missing
  • NA = Not Available*
  • [empty] = Indicates an unobserved value
Date modified: